ラッセル第4彗星

94P/Russell 4 (2023)

English version
Home page
Updated on October 8, 2022

---------------------------------------------------------------------

・ プロフィール

・ 写真集

・ 軌道要素

Epoch 2022 Aug. 9.0 TT = JDT 2459800.5
T 2023 May 21.14912 TT                                  Rudenko
q   2.2270148            (2000.0)            P               Q
n   0.14998316     Peri.   92.43456     -0.95228607     -0.28771839
a   3.5083889      Node    70.85802     +0.21917301     -0.87685502
e   0.3652315      Incl.    6.18793     +0.21240158     -0.38515373
P   6.57
From 1571 observations 1984 Mar. 4-2022 Oct. 4, mean residual 0".6.
     Nongravitational parameters A1 = -0.03, A2 = +0.0023.

・ 星図

・ 光度変化

        H = 14.5  G = 0.15             [    ,-210]  (              〜2022年10月23日)
        m1 = 3.0 + 5 logΔ + 35 log r  [-210, 155]  (2022年10月23日〜2023年10月23日)
        H = 14.5  G = 0.15             [ 155,    ]  (2023年10月23日〜              )

---------------------------------------------------------------------

軌道要素はM.P.E.C. 2022-T100に掲載されたものです。
星図はステラナビゲータ Ver.10 (アストロアーツ) で作成したものです。
光度グラフはComet for Windowsで作成したものです。

---------------------------------------------------------------------

Copyright(C) Seiichi Yoshida (comet@aerith.net). All rights reserved.